User: anonymous   Login
Location: Unspecified
(0.0000°N, 0.0000°E)
Time: 00:05:50
(UTC+00:00)
Language:

STARLINK-31596 - Orbit

View from above orbital plane
View from above orbital plane
View from above satellite
View from above satellite

Ground track
Ground track

The orbit is defined by the following mean orbital elements,

1 59336U          26145.19989840 +.00000000 +00000-0 +38665-4 0 00007
2 59336  43.0004 114.6951 0001055 267.2495  92.8236 15.27578777    08
Epoch (UTC): 25 May 2026 04:47:51
Eccentricity: 0.0001055
inclination: 43.0004°
perigee height: 482 km
apogee height: 484 km
right ascension of ascending node: 114.6951°
argument of perigee: 267.2495°
revolutions per day: 15.27578777
mean anomaly at epoch: 92.8236°

The dashed part of the orbit path shows where the satellite is in the earth's shadow,  

DLR